Canakkale Airport Canakkale TR
ICAO: LTBH
IATA: CKZ
Category: Medium
Scheduled Services: Yes

Elevation: 23 ft
TransAlt. 10000 ft.

Airport Communications:
YESILKOY APP:122.1
TWR:123.6

LTBH Zoom In..

If you have problems with the map follow the link
https://www.worldairports.se/pages/airport.php?
ICAO=LTBH

Runways:

(A) RW 04 length 5906 ft width 98 ft
---- / hdg 37

(B) RW 22 length 5906 ft width 98 ft
---- / hdg 217

Location; LTBH
Day. 18 / Time. 03.50 Zulu
* QNH: 1012
* Temperature: 22° c. 71.6°f.
* Wind from: VRB° Speed 02 kn.
Dewpoint: 19° c.
Visibility: 10 km or more,
No clouds below 1,500 m.
No cumulonimbus, and no significant weather
fenomena in the aerodrome or its vicinity.

LTBH 180350Z VRB02KT CAVOK 22/19 Q1012


Wind From VRB°
Speed 02 kn.

 
 
jpsmedia.com for Web Design worldairports.se 2019   terms of use